Hourly Weather Roundup
Issued by NWS Central Illinois

Home | Current Version | Previous Version | Text Only | Print | Product List | Glossary On
Versions: 1 2 3 4 5 6 7 8 9 10 11 12 13 14 15 16 17 18 19 20 21 22 23 24 25 26 27 28 29 30 31 32 33 34 35 36 37 38 39 40 41 42 43 44 45 46 47 48 49 50
000
NZUS43 KILX 061610
HWRILX

AREA WEATHER ROUNDUP
NATIONAL WEATHER SERVICE, LINCOLN IL
1000 AM CST TUE DEC 06 2016


CITY           SKY/WX    TMP DP  RH WIND       PRES   REMARKS
BLOOMINGTON    CLOUDY    32  31  96 NW8       29.80S FOG     WCI  25
CHAMPAIGN      CLOUDY    36  33  89 NW14      29.78R FOG     WCI  27
DANVILLE       CLOUDY    36  34  92 NW7       29.74R FOG     WCI  30
DECATUR        CLOUDY    36  33  89 NW13      29.81R FOG     WCI  27
EFFINGHAM      CLOUDY    40  39  96 NW13      29.81R WCI  33
FLORA          CLOUDY    42  39  89 NW13      29.81R
GALESBURG      CLOUDY    34  34 100 W6        29.84R FOG     WCI  29
JACKSONVILLE   CLOUDY    36  34  94 NW9       29.87R FOG     WCI  29
LACON          CLOUDY    33  33 100 W3        29.82R FOG
LAWRENCEVILLE  LGT RAIN  41  40  96 NW10      29.78R WCI  35
LITCHFIELD     CLOUDY    36  35  95 NW15      29.83R FOG     WCI  27
$$


CITY           SKY/WX    TMP DP  RH WIND       PRES   REMARKS
LINCOLN        CLOUDY    36  35  96 N7        29.82S FOG     WCI  30
MACOMB         CLOUDY    36  36  99 W7        29.88R FOG     WCI  31
MATTOON        CLOUDY    39  35  86 NW14      29.78R FOG     WCI  31
MT CARMEL AP   CLOUDY    40  38  93 NW12      29.77R FOG     WCI  34
OLNEY-NOBLE AP CLOUDY    39  39 100 NW10      29.80R FOG     WCI  32
PARIS          CLOUDY    38  36  94 NW7       29.77R FOG     WCI  32
PEORIA         CLOUDY    34  34 100 NW6       29.84R FOG     WCI  29
PONTIAC        FOG       32  32 100 NW6       29.81R VSB<1/4 WCI  27
RANTOUL        CLOUDY    35  34  96 NW8       29.78R FOG     WCI  29
SPRINGFIELD    CLOUDY    37  34  89 NW12      29.84R FOG     WCI  29
TAYLORVILLE    CLOUDY    35  33  91 NW17      29.83R WCI  25
$$

...REGIONAL REPORTS...


CITY           SKY/WX    TMP DP  RH WIND       PRES   REMARKS
CHICAGO O`HARE CLOUDY    31  30  96 NW5       29.77S FOG     WCI  26
KANKAKEE       CLOUDY    32  30  92 CALM      29.79S FOG
MOLINE         FOG       35  33  92 W10       29.84R VSB 1   WCI  27
MOUNT STERLING CLOUDY    36  35  96 NW8       29.86R FOG     WCI  30
MOUNT VERNON   NOT AVBL
PITTSFIELD     CLOUDY    37  36  94 NW8       29.89R FOG     WCI  31
QUINCY         CLOUDY    37  36  96 NW13      29.88R FOG     WCI  29
ROCKFORD       FOG       33  32  96 S3        29.81S VSB 1/2
$$


CITY           SKY/WX    TMP DP  RH WIND       PRES   REMARKS
BURLINGTON     CLOUDY    35  33  92 NW14G22   29.86R WCI  26
CEDAR RAPIDS   PTSUNNY   31  27  85 W20G29    29.86R WCI  19
DES MOINES     MOSUNNY   28  15  58 NW20G30   29.96R WCI  15
KIRKSVILLE     SUNNY     35  25  66 NW16G25   29.93R WCI  25
OTTUMWA        SUNNY     33  22  63 NW17      29.92R WCI  22
ST LOUIS       CLOUDY    41  34  76 NW10      29.88R WCI  35
$$


CITY           SKY/WX    TMP DP  RH WIND       PRES   REMARKS
TERRE HAUTE    LGT RAIN  40  36  86 NW5       29.75R
EVANSVILLE     CLOUDY    43  40  89 NW8       29.76R FOG
INDIANAPOLIS   LGT RAIN  38  36  92 NE7       29.70S FOG     WCI  33
LAFAYETTE      CLOUDY    37  33  85 N5        29.75S WCI  33
MADISON        CLOUDY    32  31  96 S6        29.78R FOG     WCI  26
MILWAUKEE      PTSUNNY   40  35  83 SW5       29.77F HAZE
$$






USA.gov is the U.S. government's official web portal to all federal, state and local government web resources and services.